Overview Statistics Trail Chart Weather Telemetry Raw packets
 

This is the latest recevied weather packets stored in our database for station/object SQ9SMC-13. If no packets are shown the sender has not sent any weather packets the latest 10 day(s).

<< 72 73 74 75 76 77 78 >>
Time Temp. Humidity Pressure Rain* Wind** Luminosity Snow
1777182603 6.67° C 67% 1019.5 hPa 0 mm - 167 W/m² -
1777182304 6.11° C 67% 1019.5 hPa 0 mm - 165 W/m² -
1777182004 6.11° C 67% 1019.3 hPa 0 mm - 140 W/m² -
1777181703 6.11° C 67% 1019 hPa 0 mm - 131 W/m² -
1777181402 6.11° C 69% 1019.1 hPa 0 mm - 127 W/m² -
1777181102 5.56° C 69% 1019.1 hPa 0 mm - 113 W/m² -
1777180804 5.56° C 70% 1018.9 hPa 0 mm - 105 W/m² -
1777180503 5.56° C 70% 1018.7 hPa 0 mm - 78 W/m² -
1777180203 5.56° C 71% 1018.9 hPa 0 mm - 88 W/m² -
1777179906 5.56° C 72% 1018.7 hPa 0 mm - 103 W/m² -
1777179604 5° C 73% 1018.8 hPa 0 mm - 61 W/m² -
1777179304 5° C 73% 1018.7 hPa 0 mm - 57 W/m² -
1777179003 5° C 73% 1018.6 hPa 0 mm - 32 W/m² -
1777178704 5° C 72% 1018.3 hPa 0 mm - 35 W/m² -
1777178403 5° C 72% 1018.2 hPa 0 mm - 44 W/m² -
1777178104 5° C 71% 1018.2 hPa 0 mm - 46 W/m² -
1777177803 5° C 72% 1018 hPa 0 mm - 38 W/m² -
1777177502 5° C 73% 1017.7 hPa 0 mm - 34 W/m² -
1777177203 5° C 73% 1017.7 hPa 0 mm - 35 W/m² -
1777176903 5° C 72% 1017.5 hPa 0 mm - 27 W/m² -
1777176603 5° C 72% 1017.3 hPa 0 mm - 21 W/m² -
1777176303 5° C 72% 1017.1 hPa 0 mm - 17 W/m² -
1777176004 5° C 72% 1017 hPa 0 mm - 14 W/m² -
1777175703 5° C 71% 1017.1 hPa 0 mm - 13 W/m² -
1777175403 5° C 70% 1016.8 hPa 0 mm - 11 W/m² -

* Rain latest hour (hover to see other rain measurements)
** Current wind speed in m/s (hover to see current wind gust speed)